BAW130 EGLL-EIDW

Flight info

Callsign BAW130
Flight time N/A
Altitude 34000
Route CPT L9 DIDZA N14 BIBPE DCT OKTAD DCT MEDOG DCT KRAGY DCT PEMOB DCT LEMGU M17 VATRY VATRY4L
Aircraft A320/M-SDE3FGHIRWY/LB1

Departure

Time 2026-05-04 16:41
Airport London Heathrow Airport (EGLL)

Arrival

Time N/A
Airport Dublin Airport (EIDW)
Time Latitude Longitude Altitude Speed Heading
2026-05-04 16:14 51.47188 -0.48589 86 ft 0 kts 269°
2026-05-04 16:14 51.46982 -0.48219 89 ft 0 kts 90°
2026-05-04 16:29 51.46972 -0.48350 89 ft 4 kts 25°
2026-05-04 16:30 51.46943 -0.48355 89 ft 2 kts 360°
2026-05-04 16:33 51.46948 -0.48355 88 ft 2 kts 360°
2026-05-04 16:33 51.47131 -0.48358 86 ft 21 kts 360°
2026-05-04 16:34 51.47450 -0.48358 86 ft 21 kts
2026-05-04 16:34 51.47486 -0.48230 86 ft 12 kts 91°
2026-05-04 16:35 51.47491 -0.47483 86 ft 27 kts 90°
2026-05-04 16:35 51.47514 -0.46613 86 ft 25 kts 89°
2026-05-04 16:36 51.47517 -0.46325 86 ft 27 kts 89°
2026-05-04 16:36 51.47508 -0.45690 89 ft 29 kts 93°
2026-05-04 16:37 51.47509 -0.45046 90 ft 28 kts 91°
2026-05-04 16:37 51.47509 -0.44838 86 ft 29 kts 89°
2026-05-04 16:37 51.47504 -0.44325 88 ft 23 kts 89°
2026-05-04 16:38 51.47491 -0.43779 89 ft 14 kts 136°
2026-05-04 16:39 51.47615 -0.43541 89 ft 17 kts 46°
2026-05-04 16:39 51.47768 -0.43483 89 ft 10 kts 278°
2026-05-04 16:40 51.47769 -0.43529 90 ft 21 kts 271°
2026-05-04 16:40 51.47763 -0.45569 85 ft 148 kts 270°
2026-05-04 16:41 51.47761 -0.49334 990 ft 178 kts 273°
2026-05-04 16:41 51.47611 -0.55616 3009 ft 202 kts 265°
2026-05-04 16:42 51.45134 -0.59893 4966 ft 217 kts 158°
2026-05-04 16:43 51.43870 -0.56173 5708 ft 191 kts 88°
2026-05-04 16:43 51.43714 -0.51161 4556 ft 248 kts 101°
2026-05-04 16:43 51.42884 -0.48807 4406 ft 243 kts 136°
2026-05-04 16:44 51.40054 -0.40386 4000 ft 196 kts 105°
2026-05-04 16:45 51.39256 -0.36320 3984 ft 187 kts 102°
2026-05-04 16:46 51.39269 -0.30394 3249 ft 178 kts 77°
2026-05-04 16:46 51.39752 -0.26704 2987 ft 161 kts 76°
2026-05-04 16:47 51.40438 -0.23353 2494 ft 157 kts 63°
2026-05-04 16:47 51.41541 -0.20383 2042 ft 151 kts 40°
2026-05-04 16:48 51.44253 -0.17569 2009 ft 157 kts 30°
2026-05-04 16:48 51.45295 -0.17162 2008 ft 159 kts 353°
2026-05-04 16:49 51.46529 -0.19800 2011 ft 171 kts 269°
2026-05-04 16:49 51.46514 -0.23633 2005 ft 171 kts 273°
2026-05-04 16:50 51.46523 -0.27434 1985 ft 172 kts 272°
2026-05-04 16:50 51.46519 -0.31270 1639 ft 171 kts 272°
2026-05-04 16:51 51.46512 -0.35066 1183 ft 170 kts 272°
2026-05-04 16:51 51.46508 -0.36951 940 ft 168 kts 274°
2026-05-04 16:51 51.46496 -0.40690 448 ft 160 kts 274°
2026-05-04 16:52 51.46491 -0.43863 102 ft 127 kts 272°
2026-05-04 16:52 51.46493 -0.44919 89 ft 51 kts 269°